Miscellaneous Local Product
Issued by NWS Hastings, NE

Home | Current Version | Previous Version | Text Only | Print | Product List | Glossary Off
Versions: 1 2 3 4 5 6 7 8 9 10 11 12 13 14 15 16 17 18 19 20 21 22 23 24 25 26 27 28 29 30 31 32 33 34 35 36 37 38 39 40 41 42 43 44 45 46 47 48 49 50

000
AXUS43 KGID 210502
MISGRI

GID CWA HOURLY WEATHER ROUNDUP
NATIONAL WEATHER SERVICE HASTINGS NE
1100 PM CST SAT DEC 20 2014

NOTE: "FAIR" INDICATES FEW OR NO CLOUDS BELOW 12,000 FEET WITH NO
SIGNIFICANT WEATHER AND/OR OBSTRUCTIONS TO VISIBILITY.

...SOUTH CENTRAL NEBRASKA...

CITY           SKY/WX    TMP DP  RH WIND       PRES   REMARKS
GRAND ISLAND   MOCLDY    27  26  96 SE5       29.95S FOG     WCI  22
HASTINGS       FOG       30  28  92 S5        29.94S VSB 1/2 WCI  25
KEARNEY        CLEAR     28  25  86 S8        29.93S WCI  20
ORD            NOT AVBL
YORK           LGT RAIN  32  32 100 S3        29.96F VSB 1/4
AURORA         FOG       32  32 100 S6        29.96S VSB 1/4 WCI  26
LEXINGTON      CLEAR     27  25  93 N3        29.92F
HOLDREGE       CLEAR     33  30  90 SW6       29.93S WCI  27
HEBRON         MOCLDY    38  35  89 SW13G18   29.98F WCI  30

...NEBRASKA PANHANDLE...

CITY           SKY/WX    TMP DP  RH WIND       PRES   REMARKS
CHADRON        CLOUDY    29  24  82 SW6       29.85F WCI  23
ALLIANCE       CLOUDY    22  19  89 W7        29.87F WCI  13
SCOTTSBLUFF    CLOUDY    35  26  69 W6        29.89F WCI  30
SIDNEY         CLOUDY    29  23  78 W8        29.91F WCI  21

...WESTERN AND NORTH CENTRAL NEBRASKA...

CITY           SKY/WX    TMP DP  RH WIND       PRES   REMARKS
VALENTINE      MOCLDY    27  25  92 W3        29.87F
AINSWORTH      PTCLDY    27  23  86 W8        29.87F WCI  18
ONEILL         FOG       31  31 100 S6        29.92S VSB 3/4 WCI  26
BROKEN BOW     CLEAR     29  26  89 CALM      29.91F
IMPERIAL       MOCLDY    30  25  81 SW8       29.93S WCI  22
NORTH PLATTE   MOCLDY    23  21  92 NW5       29.92F WCI  17
MCCOOK         CLEAR     28  25  88 W8        29.93S WCI  20

...EASTERN NEBRASKA...

CITY           SKY/WX    TMP DP  RH WIND       PRES   REMARKS
NORFOLK        FOG       32  32 100 S8        29.96F VSB 1/2 WCI  25
SO SIOUX CITY  CLOUDY    33  31  92 S9        30.02F FOG     WCI  25
TEKAMAH        CLOUDY    34  32  92 SE7       30.02F FOG     WCI  28
COLUMBUS       CLOUDY    34  28  80 S6        29.99S VSB 1/4 WCI  29
ALBION         FOG       32  31  95 S6        29.95F VSB 1/4 WCI  26
OMAHA EPPLEY   FOG       34  34 100 SE10      30.04S VSB 1   WCI  26
OFFUTT AFB     FOG       34  32  93 SE9       30.03S VSB 3/4 WCI  26
MILLARD        CLOUDY    35  33  95 SE8       30.02F FOG     WCI  28
LINCOLN        CLOUDY    36  35  96 S6        30.01F FOG     WCI  31
NEBRASKA CITY  CLOUDY    33  33 100 S7        30.03S FOG     WCI  27
BEATRICE       MOCLDY    37  35  95 S8        30.01F WCI  30
FALLS CITY     PTCLDY    35  33  92 S8        30.05F WCI  29

...NORTHERN KANSAS...

CITY           SKY/WX    TMP DP  RH WIND       PRES   REMARKS
GOODLAND       MOCLDY    35  29  78 SW9       29.93S WCI  28
HILL CITY      PTCLDY    38  33  82 SW9       29.97S WCI  31
NORTON         CLEAR     30  25  80 S7        29.93S WCI  23
PHILLIPSBURG   CLEAR     39  36  87 S5        29.97S
SMITH CENTER   CLEAR     36  34  93 S13       29.98R WCI  27
BELOIT         CLEAR     36  36 100 S6        30.00F WCI  31
HAYS           PTCLDY    34  27  75 CALM      30.00R
RUSSELL        PTCLDY    36  35  96 S13       29.99S WCI  27
CONCORDIA      PTCLDY    37  36  96 S16       30.00F WCI  28
SALINA         MOCLDY    40  36  86 S13       30.04R WCI  32
TOPEKA         PTCLDY   N/A N/A N/A SE7       30.10F



USA.gov is the U.S. government's official web portal to all federal, state and local government web resources and services.